"2010-04-29 00:00:00",66700,6.224,265.3,1.89,0.242,17.31,107.4301,18.3,19.35,13.82,0,110.8,13.24,19.11,227.3
"2010-04-29 00:00:30",66701,6.791,265.2,1.676,0.366,17.38,107.4295,18.3,19.36,13.85,0,110.8,13.24,19.11,227.2
"2010-04-29 00:01:00",66702,6.585,264.9,0.814,0.168,17.35,107.4319,18.3,19.36,13.88,0,110.8,13.24,19.12,226.9
"2010-04-29 00:01:30",66703,6.651,264.1,1.095,0.226,17.34,107.4304,18.3,19.37,13.98,0,110.8,13.24,19.11,226.1
"2010-04-29 00:02:00",66704,6.236,267.6,2.462,0.232,17.29,107.437,18.32,19.35,14.01,0,110.8,13.24,19.13,229.6
"2010-04-29 00:02:30",66705,6.399,267.7,1.317,0.235,17.31,107.442,18.33,19.36,14,0,110.8,13.24,19.14,229.7
"2010-04-29 00:03:00",66706,5.962,267.5,4.234,0.247,17.26,107.452,18.35,19.38,14.06,0,110.8,13.24,19.17,229.5
"2010-04-29 00:03:30",66707,5.653,265.6,4.173,0.137,17.36,107.4574,18.37,19.37,14.1,0,110.8,13.24,19.18,227.6
"2010-04-29 00:04:00",66708,5.571,267,2.587,0.16,17.39,107.4631,18.38,19.38,14.05,0,110.8,13.23,19.20,229.0
"2010-04-29 00:04:30",66709,5.405,262.1,3.717,0.224,17.38,107.4646,18.39,19.39,14.02,0,110.8,13.23,19.20,224.1
"2010-04-29 00:05:00",66710,5.171,268.5,5.741,0.353,17.21,107.4697,18.4,19.4,14.11,0,110.8,13.24,19.22,230.5
"2010-04-29 00:05:30",66711,5.507,273.4,7.804,0.597,17.14,107.4684,18.4,19.39,14.37,0,110.8,13.23,19.21,235.4
"2010-04-29 00:06:00",66712,5.581,274.4,9.12,0.435,17.28,107.4733,18.41,19.39,14.38,0,110.8,13.24,19.22,236.4
"2010-04-29 00:06:30",66713,4.961,270.5,3.796,0.32,17.34,107.4739,18.41,19.4,14.39,0,110.8,13.24,19.23,232.5
"2010-04-29 00:07:00",66714,4.899,262.1,5.556,0.561,17.45,107.4724,18.41,19.4,14.04,0,110.8,13.24,19.22,224.1
"2010-04-29 00:07:30",66715,4.115,277.1,7.776,0.306,17.24,107.4727,18.41,19.41,13.95,0,110.8,13.24,19.22,239.1
"2010-04-29 00:08:00",66716,4.423,271.1,7.404,0.357,17.19,107.4775,18.42,19.42,14.25,0,110.8,13.24,19.24,233.1
"2010-04-29 00:08:30",66717,3.84,280.4,5.064,0.345,17.09,107.4748,18.41,19.41,14.38,0,110.8,13.24,19.23,242.4
"2010-04-29 00:09:00",66718,3.82,296.2,6.307,0.354,16.9,107.4757,18.41,19.41,14.96,0,110.8,13.24,19.23,258.2
"2010-04-29 00:09:30",66719,4.185,293.6,3.591,0.504,17.05,107.4766,18.42,19.41,15.04,0,110.8,13.24,19.23,255.6
"2010-04-29 00:10:00",66720,4.461,286.2,3.617,0.166,17.18,107.4771,18.42,19.4,14.7,0,110.8,13.24,19.23,248.2
"2010-04-29 00:10:30",66721,4.545,281.4,3.647,0.374,17.22,107.471,18.4,19.41,14.71,0,110.8,13.24,19.22,243.4
"2010-04-29 00:11:00",66722,4.229,285,3.111,0.192,17.17,107.4621,18.38,19.41,14.9,0,110.8,13.24,19.20,247.0
"2010-04-29 00:11:30",66723,4.637,275.9,2.097,0.196,17.25,107.4514,18.35,19.41,14.75,0,110.8,13.24,19.17,237.9
"2010-04-29 00:12:00",66724,5.3,268.6,3.239,0.367,17.31,107.4516,18.35,19.4,14.67,0,110.8,13.24,19.17,230.6
"2010-04-29 00:12:30",66725,5.141,268.1,2.487,0.34,17.39,107.4525,18.36,19.4,14.45,0,110.8,13.24,19.17,230.1
"2010-04-29 00:13:00",66726,4.464,275,3.482,0.241,17.31,107.4561,18.36,19.39,14.56,0,110.8,13.25,19.18,237.0
"2010-04-29 00:13:30",66727,5.118,273,3.978,0.33,17.28,107.4558,18.36,19.38,15.04,0,110.8,13.25,19.18,235.0
"2010-04-29 00:14:00",66728,6.379,272.4,5.114,0.479,17.44,107.4562,18.36,19.38,15.02,0,110.8,13.25,19.18,234.4
"2010-04-29 00:14:30",66729,6.157,266,1.577,0.105,17.44,107.4511,18.35,19.37,14.57,0,110.8,13.25,19.17,228.0
"2010-04-29 00:15:00",66730,5.907,268.8,1.985,0.203,17.33,107.4359,18.31,19.37,14.96,0,110.8,13.25,19.13,230.8
"2010-04-29 00:15:30",66731,4.877,265.5,2.235,0.189,17.39,107.4271,18.29,19.35,15.05,0,110.8,13.24,19.11,227.5
"2010-04-29 00:16:00",66732,4.463,267.4,4.867,0.311,17.46,107.4284,18.29,19.34,14.61,0,110.8,13.25,19.11,229.4
"2010-04-29 00:16:30",66733,4.357,273.6,3.515,0.246,17.36,107.4296,18.3,19.34,14.81,0,110.8,13.25,19.11,235.6
"2010-04-29 00:17:00",66734,4.67,273.8,2.073,0.387,17.34,107.429,18.3,19.32,14.95,0,110.8,13.25,19.11,235.8
"2010-04-29 00:17:30",66735,4.287,284,3.334,0.068,17.33,107.4296,18.3,19.34,15.13,0,110.8,13.25,19.11,246.0
"2010-04-29 00:18:00",66736,3.971,295.6,6.559,0.302,17.08,107.4299,18.3,19.31,15.4,0,110.8,13.25,19.11,257.6
"2010-04-29 00:18:30",66737,3.756,296.9,5.483,0.323,17.02,107.4299,18.3,19.3,15.74,0,110.8,13.25,19.11,258.9
"2010-04-29 00:19:00",66738,4.33,293.6,3.808,0.106,17.14,107.4291,18.3,19.3,15.79,0,110.8,13.25,19.11,255.6
"2010-04-29 00:19:30",66739,4.862,291.1,2.895,0.568,17.29,107.4254,18.29,19.3,15.73,0,110.8,13.24,19.10,253.1
"2010-04-29 00:20:00",66740,5.34,289.3,1.442,0.205,17.31,107.4139,18.26,19.29,15.57,0,110.8,13.24,19.07,251.3
"2010-04-29 00:20:30",66741,4.718,289.6,2.965,0.218,17.2,107.406,18.24,19.29,15.79,0,110.8,13.24,19.05,251.6
"2010-04-29 00:21:00",66742,5.058,286.4,2.41,0.312,17.26,107.4015,18.22,19.29,15.81,0,110.8,13.24,19.04,248.4
"2010-04-29 00:21:30",66743,4.717,288.2,4.787,0.167,17.23,107.4001,18.22,19.27,15.91,0,110.8,13.24,19.04,250.2
"2010-04-29 00:22:00",66744,4.274,295.3,1.728,0.255,17.13,107.3964,18.21,19.27,16.12,0,110.8,13.24,19.03,257.3
"2010-04-29 00:22:30",66745,3.916,293.1,2.692,0.136,17.17,107.3961,18.21,19.28,16.17,0,110.8,13.24,19.03,255.1
"2010-04-29 00:23:00",66746,4.056,304.7,11.09,0.232,16.86,107.3961,18.21,19.26,16.28,0,110.7,13.24,19.03,266.7
"2010-04-29 00:23:30",66747,3.744,317,3.576,0.292,16.38,107.3961,18.21,19.25,16.91,0,110.8,13.24,19.03,279.0
"2010-04-29 00:24:00",66748,4.092,340.1,10.8,0.406,15.9,107.3914,18.2,19.25,18.61,0,110.7,13.24,19.01,302.1
"2010-04-29 00:24:30",66749,4.666,344.7,4.181,0.312,15.65,107.3798,18.17,19.23,19.52,0,110.7,13.24,18.98,306.7
"2010-04-29 00:25:00",66750,4.839,340.3,3.393,0.256,15.6,107.3641,18.13,19.23,19.64,0,110.7,13.25,18.94,302.3
"2010-04-29 00:25:30",66751,4.723,344.9,1.943,0.201,15.61,107.3624,18.12,19.22,19.41,0,110.7,13.25,18.94,306.9
"2010-04-29 00:26:00",66752,4.69,339.7,3.059,0.296,15.71,107.3613,18.12,19.19,19.18,0,110.7,13.26,18.94,301.7
"2010-04-29 00:26:30",66753,5.093,337.7,3.605,0.232,16.07,107.3345,18.05,19.17,18.51,0,110.7,13.26,18.87,299.7
"2010-04-29 00:27:00",66754,5.193,339.6,3.595,0.512,16.02,107.3286,18.04,19.15,18.34,0,110.7,13.26,18.85,301.6
"2010-04-29 00:27:30",66755,4.063,342.7,3.909,0.203,16.14,107.3075,17.98,19.13,18.18,0,110.7,13.26,18.80,304.7
"2010-04-29 00:28:00",66756,3.214,344.5,6.643,0.615,16.42,107.2926,17.95,19.1,18.35,0,110.7,13.26,18.76,306.5
"2010-04-29 00:28:30",66757,2.898,319.3,8.52,0.29,16.75,107.2647,17.87,19.07,18.71,0,110.7,13.26,18.69,281.3
"2010-04-29 00:29:00",66758,3.594,309.2,4.708,0.236,16.94,107.2554,17.85,19.03,18.38,0,110.7,13.26,18.66,271.2
"2010-04-29 00:29:30",66759,3.75,317.7,7.339,0.33,16.67,107.2276,17.78,18.99,18.41,0,110.7,13.26,18.59,279.7
"2010-04-29 00:30:00",66760,4.042,321.6,7.935,0.585,16.56,107.2132,17.74,18.94,18.5,0,110.7,13.26,18.56,283.6
"2010-04-29 00:30:30",66761,4.286,306.6,13.36,0.572,16.79,107.1932,17.69,18.9,18.19,0,110.7,13.26,18.50,268.6
"2010-04-29 00:31:00",66762,4.548,302.9,8.16,0.762,16.68,107.1682,17.63,18.87,18.18,0,110.7,13.26,18.44,264.9
"2010-04-29 00:31:30",66763,3.524,272.9,8.24,0.474,17.48,107.16,17.61,18.83,18.12,0,110.7,13.26,18.42,234.9
"2010-04-29 00:32:00",66764,4.229,265.3,7.156,0.216,17.57,107.1378,17.55,18.78,17.8,0,110.7,13.26,18.36,227.3
"2010-04-29 00:32:30",66765,4.036,262.5,4.105,0.258,17.57,107.1266,17.52,18.75,17.76,0,110.7,13.26,18.33,224.5
"2010-04-29 00:33:00",66766,4.521,260,5.233,0.275,17.33,107.1242,17.51,18.7,17.76,0,110.7,13.26,18.33,222.0
"2010-04-29 00:33:30",66767,4.656,262.6,2.52,0.22,17.4,107.1073,17.47,18.68,18.17,0,110.7,13.26,18.28,224.6
"2010-04-29 00:34:00",66768,4.121,257.2,4.242,0.365,17.14,107.0979,17.45,18.65,18.31,0,110.7,13.26,18.26,219.2
"2010-04-29 00:34:30",66769,3.673,265.9,6.933,0.414,16.98,107.0994,17.45,18.62,18.5,0,110.7,13.26,18.26,227.9
"2010-04-29 00:35:00",66770,4.645,260.7,4.092,0.493,17.14,107.1055,17.47,18.6,18.63,0,110.7,13.26,18.28,222.7
"2010-04-29 00:35:30",66771,5.574,266.6,7.804,0.621,17.52,107.1033,17.46,18.58,17.89,0,110.7,13.26,18.27,228.6
"2010-04-29 00:36:00",66772,4.705,242.9,13,0.447,17.35,107.1009,17.45,18.58,17.48,0,110.7,13.26,18.27,204.9
"2010-04-29 00:36:30",66773,5.694,238.3,4.46,0.582,17.47,107.1021,17.46,18.55,17.29,0,110.7,13.26,18.27,200.3
"2010-04-29 00:37:00",66774,9.51,255.7,5.976,2.259,17.79,107.1075,17.47,18.54,16.62,0,110.7,13.26,18.28,217.7
"2010-04-29 00:37:30",66775,11.09,257.5,3.257,0.862,18.04,107.1178,17.5,18.52,14.85,0,110.7,13.26,18.31,219.5
"2010-04-29 00:38:00",66776,10.09,242.9,4.636,0.509,17.81,107.1224,17.51,18.52,14.45,0,110.7,13.26,18.32,204.9
"2010-04-29 00:38:30",66777,11.04,243.9,4.965,1.069,17.78,107.1494,17.58,18.54,14.44,0,110.7,13.26,18.39,205.9
"2010-04-29 00:39:00",66778,12.1,243.4,5.91,1.36,17.51,107.1644,17.62,18.55,14.69,0,110.7,13.26,18.43,205.4
"2010-04-29 00:39:30",66779,10.55,249.7,7.674,0.637,17.38,107.1881,17.68,18.58,15.76,0,110.7,13.26,18.49,211.7
"2010-04-29 00:40:00",66780,10.99,248,5.482,0.754,17.83,107.199,17.71,18.62,15.07,0,110.7,13.26,18.52,210.0
"2010-04-29 00:40:30",66781,10.27,242,3.828,0.86,17.73,107.2237,17.77,18.66,14.61,0,110.7,13.26,18.58,204.0
"2010-04-29 00:41:00",66782,9.21,234.2,9.62,0.837,17.55,107.2343,17.8,18.69,15.09,0,110.7,13.26,18.61,196.2
"2010-04-29 00:41:30",66783,8.87,241.9,4.362,0.943,17.57,107.259,17.86,18.71,15.16,0,110.7,13.26,18.67,203.9
"2010-04-29 00:42:00",66784,6.706,239,7.188,0.709,17.37,107.2625,17.87,18.75,15.18,0,110.7,13.26,18.68,201.0
"2010-04-29 00:42:30",66785,6.514,256,7.025,0.595,17,107.2811,17.92,18.78,16.21,0,110.7,13.26,18.73,218.0
"2010-04-29 00:43:00",66786,5.638,255.3,7.472,0.589,17.17,107.2964,17.96,18.8,16.55,0,110.7,13.27,18.77,217.3
"2010-04-29 00:43:30",66787,5.361,247.1,10.56,0.725,17.07,107.2967,17.96,18.83,16.69,0,110.7,13.27,18.77,209.1
"2010-04-29 00:44:00",66788,4.846,236.4,9.04,0.477,17.03,107.2973,17.96,18.86,16.75,0,110.7,13.27,18.77,198.4
"2010-04-29 00:44:30",66789,7.025,239.9,15.14,1.189,16.75,107.297,17.96,18.87,17.68,0,110.7,13.27,18.77,201.9
"2010-04-29 00:45:00",66790,7.732,226.1,5.891,1.15,16.98,107.2973,17.96,18.86,17.55,0,110.7,13.27,18.77,188.1
"2010-04-29 00:45:30",66791,5.78,239.4,12.56,0.421,16.75,107.2964,17.96,18.87,17.64,0,110.7,13.27,18.77,201.4
"2010-04-29 00:46:00",66792,5.913,258.3,6.296,0.296,16.86,107.2759,17.9,18.88,17.61,0,110.7,13.27,18.72,220.3
"2010-04-29 00:46:30",66793,8.71,249.8,5.477,0.831,17.56,107.2638,17.87,18.87,16.88,0,110.7,13.27,18.69,211.8
"2010-04-29 00:47:00",66794,7.264,241.3,10.12,1.16,17.38,107.2635,17.87,18.84,16.27,0,110.7,13.27,18.69,203.3
"2010-04-29 00:47:30",66795,7.456,261.3,15.64,0.88,17.09,107.2568,17.85,18.84,16.71,0,110.7,13.27,18.67,223.3
"2010-04-29 00:48:00",66796,7.1,264.4,5.331,0.939,17.26,107.2314,17.79,18.81,17.02,0,110.7,13.27,18.60,226.4
"2010-04-29 00:48:30",66797,5.894,263.2,6.178,0.568,17.28,107.2297,17.78,18.79,16.82,0,110.7,13.27,18.60,225.2
"2010-04-29 00:49:00",66798,6.191,258.3,7.25,0.886,17.16,107.2297,17.78,18.79,16.9,0,110.7,13.27,18.60,220.3
"2010-04-29 00:49:30",66799,9.02,259,7.03,0.572,17.56,107.2278,17.78,18.77,16.44,0,110.7,13.27,18.59,221.0
"2010-04-29 00:50:00",66800,8.14,245.6,6.24,0.512,17.2,107.2134,17.74,18.77,16.71,0,110.7,13.27,18.56,207.6
"2010-04-29 00:50:30",66801,7.658,253.7,4.585,0.297,17.66,107.2041,17.72,18.76,15.84,0,110.7,13.27,18.53,215.7
"2010-04-29 00:51:00",66802,6.675,248.2,3.937,0.952,17.09,107.2002,17.71,18.74,16.01,0,110.7,13.27,18.52,210.2
"2010-04-29 00:51:30",66803,6.519,253.4,9.76,1.247,16.94,107.1962,17.7,18.74,17.12,0,110.7,13.27,18.51,215.4
"2010-04-29 00:52:00",66804,6.849,249.8,11.24,1.017,17.04,107.1959,17.7,18.72,17.41,0,110.7,13.27,18.51,211.8
"2010-04-29 00:52:30",66805,8,254.6,3.671,0.446,17.6,107.1959,17.7,18.71,16.45,0,110.7,13.27,18.51,216.6
"2010-04-29 00:53:00",66806,8.09,262.4,6.997,0.715,17.17,107.1945,17.69,18.7,16.91,0,110.7,13.27,18.51,224.4
"2010-04-29 00:53:30",66807,8.99,264.2,3.48,0.713,17.19,107.1864,17.67,18.7,17.39,0,110.7,13.27,18.49,226.2
"2010-04-29 00:54:00",66808,11.17,254.7,3.416,0.875,17.63,107.1717,17.64,18.7,16.67,0,110.7,13.27,18.45,216.7
"2010-04-29 00:54:30",66809,10.69,256.1,2.498,0.604,17.64,107.1692,17.63,18.67,16.08,0,110.7,13.26,18.44,218.1
"2010-04-29 00:55:00",66810,10.23,261.2,2.808,0.35,17.66,107.1689,17.63,18.68,15.68,0,110.7,13.26,18.44,223.2
"2010-04-29 00:55:30",66811,10.95,258.2,1.02,0.235,17.65,107.1681,17.63,18.67,15.72,0,110.7,13.27,18.44,220.2
"2010-04-29 00:56:00",66812,10.33,257.5,4.509,0.371,17.41,107.1703,17.63,18.65,16.05,0,110.7,13.26,18.45,219.5
"2010-04-29 00:56:30",66813,7.099,262,4.516,0.983,16.79,107.1703,17.63,18.67,17.34,0,110.7,13.27,18.45,224.0
"2010-04-29 00:57:00",66814,9.9,257.3,2.519,0.326,17.6,107.163,17.61,18.66,17,0,110.7,13.27,18.43,219.3
"2010-04-29 00:57:30",66815,10.14,253.6,1.387,0.218,17.6,107.1622,17.61,18.66,15.97,0,110.7,13.27,18.42,215.6
"2010-04-29 00:58:00",66816,10.91,254.5,1.702,0.257,17.65,107.1624,17.61,18.64,15.84,0,110.6,13.27,18.43,216.5
"2010-04-29 00:58:30",66817,10.92,254.8,2.364,0.168,17.61,107.1627,17.61,18.64,15.71,0,110.6,13.27,18.43,216.8
"2010-04-29 00:59:00",66818,10.96,257,2.114,0.179,17.55,107.1658,17.62,18.65,15.84,0,110.6,13.27,18.43,219.0
"2010-04-29 00:59:30",66819,10.79,254,2.133,0.296,17.58,107.1684,17.63,18.65,15.87,0,110.6,13.27,18.44,216.0
"2010-04-29 01:00:00",66820,10.13,253.3,1.689,0.247,17.58,107.1729,17.64,18.66,15.7,0,110.6,13.27,18.45,215.3
"2010-04-29 01:00:30",66821,9.83,251.5,2.538,0.339,17.4,107.1796,17.66,18.67,16.02,0,110.6,13.27,18.47,213.5
"2010-04-29 01:01:00",66822,10.51,251.9,2.121,0.335,17.45,107.19,17.68,18.66,16.32,0,110.6,13.27,18.50,213.9
"2010-04-29 01:01:30",66823,10.66,252.1,1.423,0.195,17.49,107.1945,17.69,18.67,15.96,0,110.6,13.27,18.51,214.1
"2010-04-29 01:02:00",66824,11.05,251.7,1.317,0.378,17.41,107.1954,17.7,18.68,16.11,0,110.6,13.27,18.51,213.7
"2010-04-29 01:02:30",66825,11.49,250.9,2.608,0.41,17.45,107.1959,17.7,18.68,15.89,0,110.6,13.27,18.51,212.9
"2010-04-29 01:03:00",66826,13.31,244.7,1.791,1.656,17.5,107.1959,17.7,18.68,15.85,0,110.6,13.27,18.51,206.7
"2010-04-29 01:03:30",66827,15.81,233.1,4.485,0.569,17.55,107.1959,17.7,18.7,15.92,0,110.6,13.28,18.51,195.1
"2010-04-29 01:04:00",66828,16.08,230.1,1.652,0.563,17.46,107.1985,17.7,18.71,16.12,0,110.6,13.28,18.52,192.1
"2010-04-29 01:04:30",66829,14.65,238.7,3.147,0.612,17.38,107.2081,17.73,18.72,16.24,0,110.6,13.28,18.54,200.7
"2010-04-29 01:05:00",66830,13.88,229,4.738,0.938,17.26,107.2289,17.78,18.73,16.4,0,110.6,13.28,18.60,191.0
"2010-04-29 01:05:30",66831,14.85,226.1,3.682,0.815,17.27,107.23,17.78,18.74,16.56,0,110.6,13.28,18.60,188.1
"2010-04-29 01:06:00",66832,13.51,232.6,3.688,0.804,17.18,107.23,17.78,18.77,16.69,0,110.6,13.28,18.60,194.6
"2010-04-29 01:06:30",66833,15.18,235.5,2.791,0.659,17.25,107.2341,17.8,18.78,16.74,0,110.6,13.28,18.61,197.5
"2010-04-29 01:07:00",66834,17.65,234.8,5.038,1.268,17.19,107.2501,17.84,18.79,16.89,0,110.6,13.28,18.65,196.8
"2010-04-29 01:07:30",66835,17.64,236.5,4.978,1.245,17.22,107.2634,17.87,18.81,17.05,0,110.6,13.28,18.68,198.5
"2010-04-29 01:08:00",66836,17.39,232.7,2.831,1.852,17.27,107.2653,17.88,18.82,17.14,0,110.6,13.28,18.69,194.7
"2010-04-29 01:08:30",66837,20.65,240.6,1.653,1.117,17.24,107.2653,17.88,18.84,16.96,0,110.6,13.28,18.69,202.6
"2010-04-29 01:09:00",66838,20.31,237.2,2.706,0.817,17.33,107.2647,17.87,18.83,16.56,0,110.6,13.28,18.69,199.2
"2010-04-29 01:09:30",66839,20.2,238.7,5.234,0.975,17.26,107.2653,17.88,18.84,16.66,0,110.6,13.28,18.69,200.7
"2010-04-29 01:10:00",66840,21.55,242.2,2.346,1.678,17.18,107.2659,17.88,18.84,16.89,0,110.6,13.27,18.69,204.2
"2010-04-29 01:10:30",66841,22.75,240.7,3.453,0.838,17.3,107.2659,17.88,18.84,16.78,0,110.6,13.27,18.69,202.7
"2010-04-29 01:11:00",66842,21.23,239.1,0.788,0.245,17.64,107.2665,17.88,18.85,16.04,0,110.6,13.27,18.69,201.1
"2010-04-29 01:11:30",66843,20.33,240.4,1.073,0.427,17.44,107.2644,17.87,18.85,15.9,0,110.6,13.27,18.69,202.4
"2010-04-29 01:12:00",66844,20.95,239.8,0.716,0.252,17.35,107.2656,17.88,18.86,16.09,0,110.6,13.27,18.69,201.8
"2010-04-29 01:12:30",66845,21,239.8,0.77,0.29,17.37,107.2683,17.88,18.86,16.16,0,110.6,13.27,18.70,201.8
"2010-04-29 01:13:00",66846,20.67,240,0.793,0.37,17.39,107.2671,17.88,18.86,16.07,0,110.6,13.27,18.69,202.0
"2010-04-29 01:13:30",66847,20.91,240.5,1.464,0.52,17.21,107.2677,17.88,18.86,16.33,0,110.6,13.27,18.70,202.5
"2010-04-29 01:14:00",66848,21.99,243.8,2.133,0.617,17.56,107.2668,17.88,18.86,16.13,0,110.6,13.27,18.69,205.8
"2010-04-29 01:14:30",66849,20.9,245.9,0.937,0.417,17.63,107.2674,17.88,18.86,15.6,0,110.6,13.27,18.70,207.9
"2010-04-29 01:15:00",66850,20.57,247.1,1.395,0.492,17.43,107.2699,17.89,18.86,15.7,0,110.6,13.27,18.70,209.1
"2010-04-29 01:15:30",66851,20.55,246.5,0.849,0.258,17.26,107.2702,17.89,18.86,16.03,0,110.6,13.27,18.70,208.5
"2010-04-29 01:16:00",66852,23.44,245.1,2.605,1.331,17.16,107.2717,17.89,18.86,16.41,0,110.6,13.27,18.71,207.1
"2010-04-29 01:16:30",66853,21.76,236.2,2.816,1.567,17.21,107.2702,17.89,18.86,16.64,0,110.6,13.27,18.70,198.2
"2010-04-29 01:17:00",66854,19.71,237.9,3.612,1.012,17.09,107.2488,17.83,18.83,17.02,0,110.6,13.28,18.65,199.9
"2010-04-29 01:17:30",66855,20.41,247.1,4.989,1.025,17.11,107.2403,17.81,18.83,17.31,0,110.6,13.28,18.63,209.1
"2010-04-29 01:18:00",66856,21.64,242,3.59,1.448,17.2,107.2166,17.75,18.8,17.22,0,110.6,13.28,18.56,204.0
"2010-04-29 01:18:30",66857,17.75,242.4,4.729,1.738,17,107.2077,17.73,18.77,17.54,0,110.6,13.28,18.54,204.4
"2010-04-29 01:19:00",66858,23.02,242.3,2.069,1.772,17.06,107.1897,17.68,18.73,17.76,0,110.7,13.28,18.50,204.3
"2010-04-29 01:19:30",66859,22.89,237.8,3.153,0.553,17.17,107.1763,17.65,18.72,17.55,0,110.6,13.28,18.46,199.8
"2010-04-29 01:20:00",66860,23.66,240.3,2.934,1.227,17.39,107.1671,17.62,18.67,17.37,0,110.6,13.28,18.44,202.3
"2010-04-29 01:20:30",66861,25.02,235.8,2.076,0.575,17.47,107.1455,17.57,18.64,17.17,0,110.6,13.28,18.38,197.8
"2010-04-29 01:21:00",66862,24.26,232.1,1.414,0.571,17.39,107.1504,17.58,18.61,17.21,0,110.6,13.28,18.39,194.1
"2010-04-29 01:21:30",66863,23.51,233.5,1.032,0.425,17.1,107.1519,17.58,18.58,17.68,0,110.6,13.28,18.40,195.5
"2010-04-29 01:22:00",66864,22.89,235.3,2.746,0.7,17.14,107.1451,17.57,18.56,17.87,0,110.6,13.28,18.38,197.3
"2010-04-29 01:22:30",66865,22.08,232.9,2.074,0.74,17.07,107.1224,17.51,18.54,18.08,0,110.6,13.28,18.32,194.9
"2010-04-29 01:23:00",66866,22.05,233.9,1.317,0.666,17.13,107.1205,17.5,18.52,18.07,0,110.6,13.28,18.32,195.9
"2010-04-29 01:23:30",66867,21.88,232.4,1.206,0.679,17.18,107.1217,17.51,18.5,18.08,0,110.6,13.28,18.32,194.4
"2010-04-29 01:24:00",66868,21.81,235.6,1.814,0.47,17.01,107.1077,17.47,18.48,18.18,0,110.6,13.28,18.28,197.6
"2010-04-29 01:24:30",66869,21.32,238.6,2.059,0.453,16.97,107.0915,17.43,18.45,18.49,0,110.6,13.28,18.24,200.6
"2010-04-29 01:25:00",66870,20.12,238.2,2.082,1.017,17.03,107.0916,17.43,18.41,18.67,0,110.6,13.28,18.24,200.2
"2010-04-29 01:25:30",66871,19.42,236.3,3.377,0.605,17.18,107.0672,17.37,18.4,18.23,0,110.6,13.28,18.18,198.3
"2010-04-29 01:26:00",66872,20.88,238.1,1.336,0.516,17.04,107.0611,17.35,18.36,18.51,0,110.6,13.28,18.16,200.1
"2010-04-29 01:26:30",66873,20.28,240.1,2.729,0.601,17.01,107.0623,17.35,18.35,18.74,0,110.6,13.29,18.17,202.1
"2010-04-29 01:27:00",66874,19.76,238.9,2.786,0.688,16.73,107.0452,17.31,18.31,19.45,0,110.6,13.28,18.12,200.9
"2010-04-29 01:27:30",66875,18.79,240.3,1.539,0.266,16.84,107.0294,17.27,18.29,19.73,0,110.6,13.28,18.08,202.3
"2010-04-29 01:28:00",66876,17.93,241.1,0.931,0.276,16.91,107.0105,17.22,18.27,19.84,0,110.6,13.28,18.03,203.1
"2010-04-29 01:28:30",66877,17.61,245.2,2.138,0.3,17.01,106.9948,17.18,18.24,19.74,0,110.6,13.28,17.99,207.2
"2010-04-29 01:29:00",66878,18.1,240.9,2.107,0.527,16.8,106.9694,17.12,18.19,19.91,0,110.6,13.28,17.93,202.9
"2010-04-29 01:29:30",66879,18.17,244.4,2.667,0.957,17.38,106.9618,17.1,18.14,19.31,0,110.6,13.28,17.91,206.4
"2010-04-29 01:30:00",66880,19.13,245,1.518,0.641,17.28,106.9494,17.07,18.12,18.72,0,110.6,13.28,17.88,207.0
"2010-04-29 01:30:30",66881,19.46,246.3,1.755,0.587,17.38,106.932,17.02,18.09,18.36,0,110.6,13.28,17.83,208.3
"2010-04-29 01:31:00",66882,19.34,243.5,1.68,1.086,17.14,106.9286,17.01,18.05,18.65,0,110.6,13.28,17.82,205.5
"2010-04-29 01:31:30",66883,19.48,246.3,2.563,0.774,17.09,106.9283,17.01,18.04,19.16,0,110.6,13.28,17.82,208.3
"2010-04-29 01:32:00",66884,17.62,252.8,1.159,0.32,17.44,106.928,17.01,18.05,18.94,0,110.6,13.28,17.82,214.8
"2010-04-29 01:32:30",66885,17.44,251.9,0.723,0.562,17.49,106.9322,17.02,18.03,18.16,0,110.6,13.28,17.83,213.9
"2010-04-29 01:33:00",66886,19.17,249.2,2.801,0.815,17.72,106.9497,17.07,18.02,17.9,0,110.6,13.28,17.88,211.2
"2010-04-29 01:33:30",66887,16.91,247.5,1.098,0.514,17.6,106.9618,17.1,18.03,17.7,0,110.6,13.29,17.91,209.5
"2010-04-29 01:34:00",66888,16.41,246.8,2.573,0.793,17.51,106.9646,17.1,18.04,17.68,0,110.6,13.29,17.92,208.8
"2010-04-29 01:34:30",66889,16.86,244.8,2.042,0.403,17.35,106.9863,17.16,18.07,18.19,0,110.6,13.29,17.97,206.8
"2010-04-29 01:35:00",66890,16.26,249,2.078,0.471,17.34,106.9956,17.18,18.09,18.11,0,110.6,13.29,18.00,211.0
"2010-04-29 01:35:30",66891,16.49,250.8,1.297,0.305,17.28,106.9956,17.18,18.1,18.36,0,110.6,13.29,18.00,212.8
"2010-04-29 01:36:00",66892,15.97,251.3,2.972,0.379,17.35,107.0055,17.21,18.11,18.38,0,110.6,13.29,18.02,213.3
"2010-04-29 01:36:30",66893,15.54,255.4,1.26,0.335,17.43,107.0215,17.25,18.13,18.22,0,110.6,13.29,18.06,217.4
"2010-04-29 01:37:00",66894,15.66,255.9,1.537,0.349,17.39,107.028,17.27,18.15,18.38,0,110.6,13.29,18.08,217.9
"2010-04-29 01:37:30",66895,16.95,253.8,1.995,0.787,17.49,107.0294,17.27,18.15,18.05,0,110.6,13.29,18.08,215.8
"2010-04-29 01:38:00",66896,14.87,256.2,1.84,0.536,17.34,107.0294,17.27,18.18,18.29,0,110.6,13.29,18.08,218.2
"2010-04-29 01:38:30",66897,15.55,259,1.647,1.236,17.25,107.0294,17.27,18.18,18.6,0,110.6,13.29,18.08,221.0
"2010-04-29 01:39:00",66898,14.81,253.8,2.947,0.627,17.01,107.0294,17.27,18.2,19.15,0,110.6,13.29,18.08,215.8
"2010-04-29 01:39:30",66899,13.96,255.2,3.762,1.045,17.1,107.0291,17.27,18.2,19.22,0,110.6,13.29,18.08,217.2
"2010-04-29 01:40:00",66900,16.56,258.2,1.835,0.57,17.51,107.024,17.26,18.2,18.5,0,110.6,13.29,18.07,220.2
"2010-04-29 01:40:30",66901,15.61,257.5,2.112,0.422,17.6,107.0187,17.24,18.21,17.84,0,110.6,13.29,18.06,219.5
"2010-04-29 01:41:00",66902,14.71,258.1,2.585,0.509,17.51,107.0198,17.25,18.2,17.9,0,110.6,13.29,18.06,220.1
"2010-04-29 01:41:30",66903,14.17,257.1,3.278,0.438,17.35,107.0212,17.25,18.21,18.09,0,110.6,13.29,18.06,219.1
"2010-04-29 01:42:00",66904,14.24,256.9,2.268,0.278,17.3,107.0218,17.25,18.2,18.47,0,110.6,13.29,18.06,218.9
"2010-04-29 01:42:30",66905,13.11,252.8,1.817,0.347,16.9,107.0128,17.23,18.21,19.28,0,110.6,13.29,18.04,214.8
"2010-04-29 01:43:00",66906,13.7,252.6,2.264,1.388,17.11,106.9993,17.19,18.2,19.43,0,110.6,13.3,18.01,214.6
"2010-04-29 01:43:30",66907,14.34,254.2,1.497,0.418,17.02,106.9956,17.18,18.2,19.22,0,110.6,13.3,18.00,216.2
"2010-04-29 01:44:00",66908,14.4,251.9,1.544,0.289,17.26,106.9956,17.18,18.19,19.3,0,110.6,13.29,18.00,213.9
"2010-04-29 01:44:30",66909,14.48,252.3,1.952,0.449,17.31,106.9902,17.17,18.19,18.68,0,110.6,13.29,17.98,214.3
"2010-04-29 01:45:00",66910,14.85,255.7,1.833,0.497,17.41,106.9756,17.13,18.19,18.66,0,110.6,13.29,17.94,217.7
"2010-04-29 01:45:30",66911,14.93,253.5,4.617,0.69,17.13,106.9638,17.1,18.16,19.11,0,110.6,13.28,17.91,215.5
"2010-04-29 01:46:00",66912,15.29,258,3.63,0.664,17.31,106.9618,17.1,18.14,19,0,110.6,13.28,17.91,220.0
"2010-04-29 01:46:30",66913,15.54,258.3,1.732,0.857,17.15,106.9618,17.1,18.14,19.34,0,110.6,13.29,17.91,220.3
"2010-04-29 01:47:00",66914,16.41,258,1.537,0.438,17.39,106.9618,17.1,18.14,18.74,0,110.6,13.29,17.91,220.0
"2010-04-29 01:47:30",66915,15.63,257.1,2.31,0.261,17.39,106.9604,17.09,18.11,18.64,0,110.6,13.29,17.91,219.1
"2010-04-29 01:48:00",66916,16.42,261.7,1.89,0.552,17.34,106.9528,17.07,18.11,18.72,0,110.6,13.29,17.89,223.7
"2010-04-29 01:48:30",66917,16.17,258.7,1.349,0.632,17.23,106.9452,17.05,18.09,18.91,0,110.6,13.29,17.87,220.7